Weather History for Ypsilanti, MI

Change the Weather History Date:

Sunday, January 6, 2013

  Actual Average Record
Temperature  
Mean Temperature 36 °F -  
Max Temperature 37 °F 30 °F 55 °F (2008)
Min Temperature 35 °F 19 °F -13 °F (2014)
Degree Days  
Heating Degree Days 29    
Moisture  
Dew Point 29 °F    
Average Humidity 76    
Maximum Humidity 82    
Minimum Humidity 67    
Precipitation  
Precipitation 0.01 in - - ()
Sea Level Pressure  
Sea Level Pressure 30.01 in    
Wind  
Wind Speed 14 mph (WSW)    
Max Wind Speed 18 mph    
Max Gust Speed 22 mph    
Visibility 5 miles    
Events Rain , Snow    
Averages and records for this station are not official NWS values.
T = Trace of Precipitation, MM = Missing Value Source: NWS Daily Summary

Daily Weather History Graph

Daily Weather History Graph

Search for Another Location

Airport:

Trip Planner

Search our weather history database for the weather conditions in past years. The results will help you decide how hot, cold, wet, or windy it might be!

Date:

Astronomy

Jan. 06, 2013 Rise Set
Actual Time 8:02 AM EST 5:17 PM EST
Civil Twilight 7:31 AM EST 5:49 PM EST
Nautical Twilight 6:56 AM EST 6:24 PM EST
Astronomical Twilight 6:22 AM EST 6:58 PM EST
Moon 2:13 AM EST (1/6) 12:46 PM EST (1/6)
Length of Visible Light 10h 17m
Length of Day
9h 14m
Waning Crescent, 33% of the Moon is Illuminated
Jan 6
Waning Crescent
Jan 11
New
Jan 18
First Quarter
Jan 26
Full
Feb 3
Last Quarter

Hourly Weather History & Observations

Time (EST) Temp. Windchill Dew Point Humidity Pressure Visibility Wind Dir Wind Speed Gust Speed Precip Events Conditions
12:11 AM 35.6 °F 27.1 °F 30.2 °F 81% 30.02 in 2.5 mi SSW 12.7 mph - 0.00 in Snow Light Snow
12:22 AM 35.6 °F 26.2 °F 30.2 °F 81% 30.02 in 4.0 mi SSW 15.0 mph - 0.00 in Snow Light Snow
12:53 AM 35.1 °F 24.8 °F 30.0 °F 82% 30.02 in 6.0 mi SSW 17.3 mph - 0.00 in   Haze
1:19 AM 35.6 °F 26.2 °F 28.4 °F 75% 30.00 in 6.0 mi SW 15.0 mph - N/A   Haze
1:53 AM 35.1 °F 25.2 °F 28.9 °F 78% 30.00 in 6.0 mi SSW 16.1 mph - N/A   Haze
2:33 AM 35.6 °F 25.5 °F 28.4 °F 75% 29.97 in 6.0 mi SW 17.3 mph 21.9 mph N/A   Haze
2:53 AM 36.0 °F 26.3 °F 28.9 °F 76% 29.99 in 6.0 mi SW 16.1 mph - N/A   Haze
3:06 AM 35.6 °F 25.9 °F 28.4 °F 75% 29.97 in 7.0 mi SSW 16.1 mph - N/A   Overcast
3:53 AM 36.0 °F 28.0 °F 28.9 °F 76% 29.97 in 6.0 mi SW 11.5 mph - N/A   Haze
4:13 AM 35.6 °F 26.6 °F 28.4 °F 75% 29.95 in 7.0 mi SW 13.8 mph - N/A   Overcast
4:53 AM 35.1 °F 25.9 °F 28.9 °F 78% 29.95 in 5.0 mi SSW 13.8 mph - 0.00 in   Haze
5:53 AM 35.1 °F 26.9 °F 28.9 °F 78% 29.94 in 7.0 mi SSW 11.5 mph - 0.00 in   Overcast
7:53 AM 36.0 °F 27.5 °F 30.0 °F 79% 29.93 in 7.0 mi SSW 12.7 mph - N/A   Overcast
8:53 AM 36.0 °F 27.5 °F 28.9 °F 76% 29.94 in 6.0 mi SSW 12.7 mph - N/A   Haze
9:53 AM 36.0 °F 27.5 °F 28.9 °F 76% 29.94 in 6.0 mi SSW 12.7 mph - N/A   Haze
10:53 AM 37.0 °F 28.1 °F 30.0 °F 76% 29.95 in 6.0 mi SW 15.0 mph - N/A   Haze
11:08 AM 37.4 °F 28.9 °F 30.2 °F 75% 29.93 in 6.0 mi SW 13.8 mph 21.9 mph N/A   Haze
11:53 AM 37.0 °F 28.1 °F 30.0 °F 76% 29.94 in 6.0 mi SW 15.0 mph - N/A   Haze
12:38 PM 37.4 °F 28.9 °F 30.2 °F 75% 29.92 in 2.5 mi SW 13.8 mph - N/A   Haze
12:53 PM 37.0 °F 29.8 °F 30.9 °F 79% 29.93 in 2.5 mi SW 10.4 mph - N/A   Haze
1:05 PM 37.4 °F 30.3 °F 30.2 °F 75% 29.92 in 3.0 mi SW 10.4 mph - N/A   Haze
1:51 PM 37.4 °F 28.9 °F 30.2 °F 75% 29.92 in 5.0 mi WSW 13.8 mph - 0.00 in Snow Light Snow
1:53 PM 37.9 °F 29.6 °F 30.9 °F 76% 29.94 in 4.0 mi WSW 13.8 mph - 0.00 in Snow Light Snow
2:25 PM 35.6 °F 26.6 °F 30.2 °F 81% 29.93 in 2.5 mi West 13.8 mph - 0.00 in Snow Light Snow
2:42 PM 35.6 °F 26.2 °F 30.2 °F 81% 29.94 in 3.0 mi West 15.0 mph - 0.01 in   Haze
2:53 PM 36.0 °F 27.1 °F 30.0 °F 79% 29.96 in 3.0 mi West 13.8 mph - 0.01 in   Haze
3:30 PM 35.6 °F 25.9 °F 30.2 °F 81% 29.97 in 3.0 mi WSW 16.1 mph - 0.00 in Rain Light Rain
3:41 PM 35.6 °F 27.1 °F 30.2 °F 81% 29.98 in 3.0 mi WSW 12.7 mph - 0.00 in Rain Light Rain
3:53 PM 35.1 °F 25.9 °F 30.0 °F 82% 30.00 in 3.0 mi WSW 13.8 mph - 0.00 in Rain Light Rain
3:59 PM 35.6 °F 26.2 °F 30.2 °F 81% 29.99 in 2.0 mi West 15.0 mph - 0.00 in Rain Light Rain
4:09 PM 35.6 °F 25.2 °F 30.2 °F 81% 30.00 in 3.0 mi WNW 18.4 mph 21.9 mph 0.00 in Rain Light Rain
4:17 PM 35.6 °F 26.2 °F 28.4 °F 75% 30.00 in 4.0 mi WNW 15.0 mph - 0.00 in   Haze
4:26 PM 35.6 °F 26.2 °F 28.4 °F 75% 30.01 in 5.0 mi WNW 15.0 mph - 0.00 in   Haze
4:33 PM 35.6 °F 26.6 °F 28.4 °F 75% 30.01 in 5.0 mi West 13.8 mph - 0.00 in   Haze
4:53 PM 35.1 °F 26.9 °F 28.0 °F 76% 30.04 in 5.0 mi West 11.5 mph - 0.00 in   Haze
5:53 PM 35.1 °F 26.9 °F 28.0 °F 76% 30.08 in 6.0 mi West 11.5 mph - N/A   Haze
6:05 PM 35.6 °F 29.9 °F 28.4 °F 75% 30.08 in 5.0 mi West 6.9 mph - N/A   Haze
6:53 PM 35.1 °F 27.9 °F 27.0 °F 72% 30.13 in 7.0 mi West 9.2 mph - N/A   Overcast
7:05 PM 35.6 °F 28.6 °F 26.6 °F 70% 30.12 in 7.0 mi WNW 9.2 mph - N/A   Overcast
7:53 PM 35.1 °F 27.4 °F 27.0 °F 72% 30.16 in 6.0 mi WNW 10.4 mph - N/A   Haze
8:53 PM 35.1 °F 27.9 °F 26.1 °F 70% 30.19 in 8.0 mi NW 9.2 mph - N/A   Overcast
9:53 PM 35.1 °F 27.9 °F 26.1 °F 70% 30.21 in 8.0 mi NW 9.2 mph - N/A   Overcast
10:53 PM 35.1 °F 27.9 °F 25.0 °F 67% 30.24 in 8.0 mi NW 9.2 mph - N/A   Overcast
11:53 PM 35.1 °F 27.9 °F 25.0 °F 67% 30.27 in 9.0 mi NW 9.2 mph - N/A   Overcast